Regional Weather Roundup
Issued by NWS

Home | Current Version | Previous Version | Text Only | Print | Product List | Glossary On
Versions: 1 2 3 4 5 6 7 8 9 10 11 12 13 14 15 16 17 18 19 20 21 22 23 24 25 26 27 28 29 30 31 32 33 34 35 36 37 38 39 40 41 42 43 44 45 46 47 48 49 50
000
ASUS46 KPQR 260310
RWROR

OREGON REGIONAL WEATHER ROUNDUP
NATIONAL WEATHER SERVICE PORTLAND OR
800 PM PDT FRI JUL 25 2014

NOTE: "FAIR" INDICATES FEW OR NO CLOUDS BELOW 12,000 FEET WITH
NO SIGNIFICANT WEATHER AND/OR OBSTRUCTIONS TO VISIBILITY.

ORZ001>013-260400-
NORTHWEST OREGON


CITY           SKY/WX    TMP DP  RH WIND       PRES   REMARKS
ASTORIA        CLEAR     63  52  67 NW13      30.11S
NEWPORT        CLEAR     61  54  77 N13       30.13S
PORTLAND       CLEAR     74  54  49 NW8       30.04S
VANCOUVER WA   CLEAR     75  53  46 VRB5      30.04S
SCAPPOOSE      CLEAR     73  54  51 NW6       30.04S
HILLSBORO      CLEAR     73  55  53 NW9       30.04S
AURORA         CLEAR     75  54  47 NE7       30.05S
MCMINNVILLE    CLEAR     78  55  44 NE7       30.04S
SALEM          CLEAR     77  53  43 N10       30.02S
CORVALLIS      CLEAR     72  55  56 NW15      30.05R
EUGENE         CLEAR     77  52  41 N9        30.03S
$$

ORZ021-028-260400-
SOUTHWEST OREGON


CITY           SKY/WX    TMP DP  RH WIND       PRES   REMARKS
NORTH BEND     CLEAR     63  57  82 N17G25    30.09S
BROOKINGS      CLEAR     67  55  65 SE6       29.96R
ROSEBURG       CLEAR     82  47  29 N10       30.00R
SEXTON SUMMIT  CLEAR     65  42  43 N8        30.10S
MEDFORD        CLEAR     85  39  19 N13       29.96R
$$

ORZ009-041-260400-
COLUMBIA GORGE


CITY           SKY/WX    TMP DP  RH WIND       PRES   REMARKS
TROUTDALE      CLEAR     75  53  46 NW5       30.03R
THE DALLES     CLEAR     78  49  35 NW13      29.97R
$$

ORZ029>031-042>050-061>064-260400-
EASTERN OREGON


CITY           SKY/WX    TMP DP  RH WIND       PRES   REMARKS
REDMOND        CLEAR     77  38  24 N8        30.05R
BEND           CLEAR     75  37  25 N8        30.08R
KLAMATH FALLS  CLEAR     78  33  19 N16       30.06R
LAKEVIEW       CLEAR     77  27  15 W8        30.09R
HERMISTON      CLEAR     80  37  21 CALM      29.97S
PENDLETON      CLEAR     78  36  21 W7        30.00S
JOHN DAY       CLEAR     78  28  16 NW10      30.07R
MEACHAM        CLEAR     63  42  46 CALM      30.12R
LA GRANDE      CLEAR     72  37  28 N9        30.05R
BAKER CITY     CLEAR     71  41  33 NW15      30.06R
BURNS          CLEAR     76  24  14 SW8       30.05S
ROME             N/A     82  28  14 N12       30.01R
ONTARIO        CLEAR     79  47  32 CALM      29.96S
$$



USA.gov is the U.S. government's official web portal to all federal, state and local government web resources and services.